Meteo Giornale » Osservazioni meteo Stati Uniti (USA) » Skagway
ore: 17:53 - Osservazioni Meteo Skagway
Lat. 59° 28' N Lon. 135° 18' W Alt. 16 metri s.l.m.
11 °C
Pioggia
Temp. 24 Ore
10 °C
13 °C
Ovest/Nord-Ovest
7.4 Km/h
Dew point 9 °C
Umidità 87 %
Visibilità 13 Km
Il sole sorge alle ore 05:56
Il sole tramonta alle ore 20:06
| Data e Ora | Cielo e Fenomeni | T °C | DP °C | Um. % | Pres. hPa | Vis. km | Vento km/h | |
|---|---|---|---|---|---|---|---|---|
| Oggi h: 17:53 | Pioggia | 11 | 9 | 87 | 1000 | 13 | O/NO 7.4 | |
| Oggi h: 16:53 | Pioggia | 12 | 8 | 76 | 999 | 14 | S/SO 24 | |
| Oggi h: 15:53 | Pioggia | 12 | 9 | 81 | 999 | 14 | N 7.4 | |
| Oggi h: 14:53 | Pioggia | 13 | 9 | 76 | 999 | 10 | S/SO 25.9 | |
| Oggi h: 13:53 | Coperto | 13 | 9 | 76 | 999 | 10 | S/SO 29.6 | |
| Oggi h: 12:53 | Pioggia | 12 | 11 | 93 | 999 | 14 | S/SO 40.7 | |
| Oggi h: 11:53 | Pioggia | 12 | 11 | 93 | 999 | 14 | S/SO 37 | |
| Oggi h: 10:53 | Coperto | 13 | 11 | 87 | 1000 | 10 | S/SO 31.5 | |
| Oggi h: 09:53 | Coperto | 13 | 11 | 87 | 1000 | 10 | S/SO 37 | |
| Oggi h: 08:53 | Coperto | 11 | 11 | 100 | 1001 | 10 | N 0 | |
| Oggi h: 08:18 | Coperto | 11 | 11 | 100 | 1002 | 10 | N 5.5 | |
| Oggi h: 08:08 | Pioggia | 11 | 11 | 100 | 1002 | 14 | N 0 | |
| Oggi h: 07:53 | Coperto | 11 | 11 | 100 | 1002 | 10 | N 0 | |
| Oggi h: 06:53 | Coperto | 11 | 11 | 100 | 1003 | 14 | N 0 | |
| Oggi h: 06:36 | Pioggia | 11 | 11 | 100 | 1003 | 13 | N 0 | |
| Oggi h: 06:21 | Pioggia Foschia | 11 | 11 | 100 | 1003 | 6 | N 0 | |
| Oggi h: 06:16 | Pioggia Foschia | 10 | 10 | 100 | 1003 | 6 | N 0 | |
| Oggi h: 06:09 | Pioggia Foschia | 10 | 10 | 100 | 1003 | 5 | N 0 | |
| Oggi h: 06:07 | Pioggia Foschia | 10 | 10 | 100 | 1003 | 5 | N 0 | |
| Oggi h: 06:00 | Pioggia Foschia | 10 | 10 | 100 | 1003 | 3 | N 0 | |
| Oggi h: 05:53 | Coperto | 10 | 10 | 100 | 1003 | 10 | N 0 | |
| Oggi h: 05:43 | Pioggia | 11 | 11 | 100 | 1004 | 11 | N 0 | |
| Oggi h: 05:22 | Pioggia | 11 | 11 | 100 | 1004 | 10 | N 0 | |
| Oggi h: 05:14 | Pioggia | 11 | 11 | 100 | 1004 | 11 | N 0 | |
| Oggi h: 05:00 | Pioggia Foschia | 11 | 11 | 100 | 1004 | 6 | N 0 | |
| Oggi h: 04:53 | Pioggia Foschia | 10 | 10 | 100 | 1004 | 8 | N 0 | |
| Oggi h: 04:19 | Pioggia | 11 | 11 | 100 | 1005 | 10 | N 0 | |
| Oggi h: 04:12 | Foschia | 11 | 11 | 100 | 1005 | 2 | N 0 | |
| Oggi h: 03:53 | Pioggia Foschia | 11 | 11 | 100 | 1005 | 6 | N 0 | |
| Oggi h: 03:35 | Pioggia | 11 | 11 | 100 | 1005 | 11 | N 0 | |
| Oggi h: 03:28 | Pioggia Foschia | 11 | 11 | 100 | 1005 | 3 | N 0 | |
| Oggi h: 03:23 | Pioggia Foschia | 11 | 10 | 93 | 1005 | 2 | N 0 | |
| Oggi h: 03:16 | Pioggia Foschia | 10 | 10 | 100 | 1005 | 5 | N 0 | |
| Oggi h: 03:10 | Pioggia Foschia | 11 | 11 | 100 | 1005 | 5 | N 0 | |
| Oggi h: 03:00 | Pioggia Foschia | 11 | 11 | 100 | 1006 | 3 | N 0 | |
| Oggi h: 02:53 | Pioggia Foschia | 11 | 11 | 100 | 1006 | 5 | N 0 | |
| Oggi h: 02:45 | Pioggia Foschia | 11 | 11 | 100 | 1006 | 8 | N 0 | |
| Oggi h: 01:53 | Coperto | 11 | 11 | 100 | 1007 | 10 | N 0 | |
| Oggi h: 00:53 | Coperto | 11 | 11 | 100 | 1007 | 10 | N 0 | |
| Oggi h: 00:19 | Coperto | 11 | 11 | 100 | 1008 | 10 | N 0 | |
| Ieri h: 23:53 | Coperto | 11 | 11 | 100 | 1008 | 10 | N 0 | |
| Ieri h: 23:27 | Coperto | 11 | 11 | 100 | 1008 | 10 | N 0 | |
| Ieri h: 22:53 | Coperto | 11 | 11 | 100 | 1008 | 10 | N 5.5 | |
| Ieri h: 21:53 | Coperto | 12 | 11 | 93 | 1009 | 10 | N 0 | |
| Ieri h: 20:53 | Coperto | 12 | 11 | 93 | 1009 | 10 | N 0 | |
| Ieri h: 19:53 | Coperto | 12 | 11 | 93 | 1009 | 10 | O/SO 9.3 | |
| Ieri h: 18:53 | Coperto | 12 | 11 | 93 | 1009 | 10 | N 5.5 | |



